This is the latest recevied weather packets stored in our database for station/object K5KVN. If no packets are shown the sender has not sent any weather packets the latest 10 day(s).
| Time | Temp. | Humidity | Pressure | Rain* | Wind** | Luminosity | Snow |
|---|---|---|---|---|---|---|---|
| 1787924356 | 20.56° C | 87% | 1021.6 hPa | 0 mm | - | - | - |
| 1787923754 | 19.44° C | 90% | 1021.5 hPa | 0 mm | - | - | - |
| 1787923151 | 18.89° C | 93% | 1021.4 hPa | 0 mm | - | - | - |
| 1787922552 | 18.33° C | 95% | 1021.4 hPa | 0 mm | - | - | - |
| 1787921952 | 17.22° C | 96% | 1021.3 hPa | 0 mm | - | - | - |
| 1787921352 | 16.67° C | 95% | 1021.2 hPa | 0 mm | - | - | - |
| 1787920753 | 16.67° C | 95% | 1021.2 hPa | 0 mm | - | - | - |
| 1787920152 | 16.67° C | 95% | 1021.1 hPa | 0 mm | - | - | - |
| 1787919612 | 16.67° C | 95% | 1021.1 hPa | 0 mm | - | - | - |
| 1787918954 | 16.67° C | 95% | 1021 hPa | 0 mm | - | - | - |
| 1787918351 | 16.11° C | 94% | 1021 hPa | 0 mm | - | - | - |
| 1787917752 | 16.67° C | 94% | 1020.8 hPa | 0 mm | - | - | - |
| 1787917152 | 16.67° C | 94% | 1020.6 hPa | 0 mm | - | - | - |
| 1787916553 | 16.67° C | 94% | 1020.6 hPa | 0 mm | - | - | - |
| 1787915952 | 16.67° C | 94% | 1020.2 hPa | 0 mm | - | - | - |
| 1787915349 | 16.67° C | 94% | 1020.2 hPa | 0 mm | - | - | - |
| 1787914809 | 16.67° C | 94% | 1020.2 hPa | 0 mm | - | - | - |
| 1787914148 | 16.67° C | 93% | 1020.1 hPa | 0 mm | - | - | - |
| 1787913608 | 16.67° C | 93% | 1020.2 hPa | 0 mm | - | - | - |
| 1787912945 | 16.67° C | 93% | 1020.1 hPa | 0 mm | - | - | - |
| 1787912346 | 16.67° C | 93% | 1020.2 hPa | 0 mm | - | - | - |
| 1787911746 | 16.67° C | 92% | 1020.2 hPa | 0 mm | - | - | - |
| 1787911144 | 16.11° C | 92% | 1020.1 hPa | 0 mm | - | - | - |
| 1787910544 | 16.67° C | 92% | 1020.1 hPa | 0 mm | - | - | - |
| 1787909945 | 16.67° C | 92% | 1020.1 hPa | 0 mm | - | - | - |
* Rain latest hour (hover to see other rain measurements)
** Current wind speed in m/s (hover to see current wind gust speed)